TIME,�g��[���C[MJ/h],����[MJ/h],�Ɩ�[MJ/h],�~�[[MJ/h],�①��[MJ/h],��y���[MJ/h],�Ǝ��q��[MJ/h],���̑��s��[MJ/h],�u�����`������[MJ/h]
2002/12/1 0:00,0.51696,0,0.44352,0.0432,0.00432,0.39456,0.09504,0,-0.1224
2002/12/1 0:15,0.49392,0,0.76896,0.0432,0.21024,0.39024,0.0864,0,-0.14112
2002/12/1 0:30,0.42624,0,1.07136,0.0432,0.4104,0.39024,0.11952,0,-0.21024
2002/12/1 0:45,0.45504,0,1.08288,0.0432,0.40176,0.39168,0.08784,0,-0.1872
2002/12/1 1:00,0.08928,0,0.46512,0.0432,0.00432,0.2808,0.0864,0,-0.01728
2002/12/1 1:15,0,0,0.1296,0.0432,0.02592,0.20016,0.08496,0,0.036
2002/12/1 1:30,0,0,0.1368,0.0432,0.40896,0.1728,0.08064,0,0.01872
2002/12/1 1:45,0,0,0.13248,0.0432,0.4104,0.1728,0.08496,0,0.01584
2002/12/1 2:00,0,0,0.13392,0.0432,0.1368,0.1728,0.08496,0,0.03168
2002/12/1 2:15,0,0,0.13824,0.0432,0.00144,0.1728,0.0792,0,0.0432
2002/12/1 2:30,0,0,0.13392,0.0432,0.26928,0.1728,0.11808,0,0.01152
2002/12/1 2:45,0,0,0.14256,0.0432,0.4104,0.1728,0.08496,0,0.0144
2002/12/1 3:00,0,0,0.13968,0.0432,0.1944,0.1728,0.08352,0,0.02736
2002/12/1 3:15,0,0,0.14112,0.0432,0.00288,0.1728,0.08784,0,0.04176
2002/12/1 3:30,0,0,0.1368,0.0432,0.24912,0.17136,0.08496,0,0.02304
2002/12/1 3:45,0,0,0.13536,0.0432,0.4104,0.1728,0.08784,0,0.01584
2002/12/1 4:00,0,0,0.14256,0.0432,0.18,0.1728,0.08208,0,0.036
2002/12/1 4:15,0,0,0.14256,0.0432,0.00432,0.1728,0.08208,0,0.04176
2002/12/1 4:30,0,0,0.14112,0.0432,0.27072,0.1728,0.08784,0,0.02016
2002/12/1 4:45,0,0,0.20448,1.74528,0.41184,0.1728,0.08496,0,-0.01584
2002/12/1 5:00,0.02592,0,0.1584,0.93744,0.13248,0.1728,0.0864,0,0.04752
2002/12/1 5:15,0.01728,0,0.14976,0.21456,0.00288,0.21312,0.0864,0,0.036
2002/12/1 5:30,3.2904,0,0.75456,0.11232,0.32256,0.27936,0.0936,0,-0.08208
2002/12/1 5:45,3.07728,0,1.20096,1.42992,0.4248,0.22752,0.08352,0,-0.25344
2002/12/1 6:00,3.02112,0,2.12544,0.0432,0.15552,0.22464,0.09072,0,-0.25344
2002/12/1 6:15,3.01104,0,2.71008,0.0432,0.00576,0.09648,0.09216,0,-0.31104
2002/12/1 6:30,2.91456,0,1.67616,0.0432,0.40752,0.0864,0.09216,0,-0.14688
2002/12/1 6:45,2.59344,0,1.584,0.0432,0.38448,0.08928,0.09216,0,-0.13824
2002/12/1 7:00,2.30832,0,1.61568,0.27792,0.00288,0.18,0.08784,0,-0.13392
2002/12/1 7:15,1.86912,0,1.7136,1.04256,0.04896,0.16992,0.08784,0,-0.21168
2002/12/1 7:30,2.32416,0,1.77552,0.04464,0.40464,0.0864,0.09216,0,-0.22176
2002/12/1 7:45,2.16864,0,1.78704,0.0432,0.396,0.0864,0.09504,0,-0.19584
2002/12/1 8:00,2.13552,0,1.6776,0.0432,0.03456,0.0864,0.08928,0,-0.15264
2002/12/1 8:15,2.04768,0,1.14336,0.0432,0.0072,0.0864,0.1152,0,-0.0864
2002/12/1 8:30,1.92816,0,1.0728,0.19872,0.39024,0.0864,0.08352,0,-0.11088
2002/12/1 8:45,2.00448,0,0.78624,0.38016,0.3888,0.0864,0.63216,0,-0.21312
2002/12/1 9:00,1.9296,0,0.65952,0.38448,0.15552,0.0864,0.08928,0,-0.08208
2002/12/1 9:15,1.83312,0,0.77904,0.0432,0.00432,0.0864,0.0864,0,-0.06192
2002/12/1 9:30,1.80432,0,0.77328,0.0432,0.25632,0.0864,0.07776,0,-0.0936
2002/12/1 9:45,1.70928,0,0.77904,0.0432,0.39312,0.0864,0.0864,0,-0.0864
2002/12/1 10:00,1.62288,0,0.75168,0.0432,0.28224,0.0864,0.0864,0,-0.06624
2002/12/1 10:15,1.60704,0,0.76464,0.0432,0.00432,0.08784,0.08928,0,-0.05616
2002/12/1 10:30,0.8784,0,0.77472,0.0432,0.108,0.0864,0.08496,0,-0.06048
2002/12/1 10:45,0.35568,0,0.55008,0.37008,0.42336,0.10224,0.08064,0,-0.144
2002/12/1 11:00,0.3168,0,0.43488,0.0432,0.3888,0.24624,0.11664,0,-0.05616
2002/12/1 11:15,1.00944,0,0.4392,0.0432,0.1656,0.1944,0.09216,0,-0.1008
2002/12/1 11:30,0.9288,0,0.45216,0.0432,0.00144,0.1944,0.0864,0,-0.10368
2002/12/1 11:45,0.67104,0,0.53712,0.44496,0.22032,0.19584,0.0936,0,-0.12672
2002/12/1 12:00,0.7704,0,0.7632,0.0432,0.40032,0.19728,0.08928,0,-0.108
2002/12/1 12:15,0.37152,0,1.07568,0.0432,0.3888,0.1944,0.08784,0,-0.11376
2002/12/1 12:30,0.45648,0,1.01664,0.0432,0.0144,0.1944,0.08928,0,-0.06048
2002/12/1 12:45,0.44352,0,0.82224,0.58032,0.01872,0.1944,0.11376,0,-0.0864
2002/12/1 13:00,0.41616,0,0.95184,0.0432,0.37008,0.1944,1.0368,0,-0.22032
2002/12/1 13:15,0.28368,0,0.85248,0.0432,0.3888,0.1944,1.50912,0,-0.26496
2002/12/1 13:30,0.47088,0,1.12464,0.0432,0.43632,0.19584,0.0864,0,-0.21312
2002/12/1 13:45,0,0,1.29456,0.0432,0.54,0.1944,0.08496,0,-0.18288
2002/12/1 14:00,0,0,0.88848,0.0432,0.54,0.1944,0.08784,0,-0.1512
2002/12/1 14:15,0,0,0.12096,0.0432,0.46368,0.1944,0.08352,0,-0.01152
2002/12/1 14:30,0,0,0.10944,0.0432,0.48528,0.1944,0.0864,0,0.01584
2002/12/1 14:45,0,0,0.11232,0.0432,0.44784,0.1944,0.0864,0,0.01584
2002/12/1 15:00,0,0,0.11376,0.0432,0.4248,0.1944,0.08208,0,0.01728
2002/12/1 15:15,0,0,0.10656,0.0432,0.40752,0.1944,0.1152,0,0.02592
2002/12/1 15:30,0,0,0.108,0.0432,0.34416,0.1944,0.06048,0,0.03312
2002/12/1 15:45,0,0,0.11232,0.0432,0.00432,0.1944,0.11808,0,0.05328
2002/12/1 16:00,0,0,0.10944,0.0432,0.10512,0.1944,0.08784,0,0.05184
2002/12/1 16:15,0,0,0.10368,0.0432,0.4032,0.1944,0.08208,0,0.03024
2002/12/1 16:30,0,0,0.108,0.0432,0.39024,0.1944,0.09072,0,0.01872
2002/12/1 16:45,0,0,0.11376,0.0432,0.01008,0.1944,0.08496,0,0.05472
2002/12/1 17:00,0,0,0.1008,0.0432,0.04176,0.1944,0.08064,0,0.0576
2002/12/1 17:15,0,0,0.11232,0.0432,0.4104,0.1944,0.08784,0,0.01584
2002/12/1 17:30,0,0,0.10368,0.0432,0.3888,0.1944,0.08928,0,0.01872
2002/12/1 17:45,0,0,0.11376,0.0432,0.09072,0.1944,0.08352,0,0.04752
2002/12/1 18:00,0,0,0.10656,0.0432,0.00288,0.1944,0.08784,0,0.0576
2002/12/1 18:15,0,0,0.1008,0.0432,0.29088,0.1944,0.08208,0,0.03168
2002/12/1 18:30,0,0,0.11088,0.0432,0.3888,0.1944,0.08496,0,0.01728
2002/12/1 18:45,0,0,0.1152,0.0432,0.28944,0.1944,0.12528,0,0.01584
2002/12/1 19:00,0,0,0.10512,0.0432,0.00432,0.1944,0.05328,0,0.0576
2002/12/1 19:15,0,0,0.11808,0.0432,0.04032,0.1944,0.11664,0,0.03168
2002/12/1 19:30,2.0808,0,0.89856,0.0432,0.39168,0.28656,0.08352,0,-0.13824
2002/12/1 19:45,3.744,0,1.21968,0.0432,0.38736,0.45792,0.08352,0,-0.24336
2002/12/1 20:00,2.93904,0,1.24704,0.0432,0.22464,0.28368,0.144,0,-0.16848
2002/12/1 20:15,2.93184,0,1.21392,0.0432,0.00144,0.28512,0.11808,0,-0.16272
2002/12/1 20:30,2.72304,0,0.74592,0.0432,0.08496,0.1944,0.36432,0,-0.09504
2002/12/1 20:45,2.55312,0,0.7848,0.0432,0.39888,0.1944,0.07776,0,-0.11664
2002/12/1 21:00,2.32992,0,1.01088,0.0432,0.3888,0.1944,0.08928,0,-0.1656
2002/12/1 21:15,2.2896,0,1.11744,0.0432,0.08784,0.1944,1.42416,0,-0.27648
2002/12/1 21:30,2.28816,0,1.28736,0.0432,0.00432,0.2016,1.008,0,-0.22176
2002/12/1 21:45,2.20464,0,0.48384,0.0432,0.29232,0.31968,0.08928,0,-0.09648
2002/12/1 22:00,2.22768,0,0.4752,0.0432,0.39312,0.52416,0.11952,0,-0.15696
2002/12/1 22:15,1.99872,0,0.54864,0.0432,0.22464,0.51696,0.08784,0,-0.1008
2002/12/1 22:30,0.50976,0,0.3168,0.0432,0.00576,0.40464,0.08784,0,0.00864
2002/12/1 22:45,0,0,0.144,0.0432,0.15408,0.30528,0.08496,0,0.00864
2002/12/1 23:00,0,0,0.14832,0.0432,0.4032,0.2808,0.08784,0,-0.01872
2002/12/1 23:15,0,0,0.14832,0.0432,0.36432,0.27936,0.08784,0,-0.00864
2002/12/1 23:30,0,0,0.13824,0.0432,0.00864,0.2592,0.08208,0,0.0288
2002/12/1 23:45,0,0,0.14256,0.0432,0.00144,0.2592,0.08352,0,0.0072
2002/12/2 0:00,0,0,0.13536,0.0432,0.39888,0.26496,0.0864,0,-0.01584
2002/12/2 0:15,0,0,0.14976,0.0432,0.39168,0.2808,0.08784,0,-0.01008
2002/12/2 0:30,0,0,0.14688,0.0432,0.07344,0.2808,0.08928,0,0.01296
2002/12/2 0:45,0,0,0.144,0.0432,0.00432,0.2808,0.08784,0,0.0216
2002/12/2 1:00,0,0,0.144,0.0432,0.29952,0.2808,0.09072,0,0.00144
2002/12/2 1:15,0,0,0.144,0.0432,0.39024,0.27792,0.08928,0,-0.0072
2002/12/2 1:30,0,0,0.144,0.0432,0.17568,0.26064,0.08928,0,0
2002/12/2 1:45,0,0,0.14112,0.0432,0.00144,0.26064,0.08928,0,0.02016
2002/12/2 2:00,0,0,0.14544,0.0432,0.15984,0.27216,0.11952,0,0.00576
2002/12/2 2:15,0,0,0.14544,0.0432,0.40032,0.2808,0.08784,0,-0.00144
2002/12/2 2:30,0,0,0.14832,0.0432,0.2232,0.2808,0.08928,0,0.00864
2002/12/2 2:45,0,0,0.15552,0.0432,0.00576,0.2664,0.08928,0,0.02016
2002/12/2 3:00,0,0,0.14544,0.0432,0.12528,0.21888,0.08352,0,0.036
2002/12/2 3:15,0,0,0.12384,0.0432,0.39744,0.216,0.08496,0,0.0144
2002/12/2 3:30,0,0,0.12096,0.0432,0.18576,0.216,0.08496,0,0.03312
2002/12/2 3:45,0,0,0.1296,0.0432,0.00432,0.216,0.08352,0,0.03744
2002/12/2 4:00,0,0,0.13392,0.0432,0.17712,0.216,0.08064,0,0.02736
2002/12/2 4:15,0,0,0.12672,0.0432,0.40752,0.216,0.08352,0,0.01296
2002/12/2 4:30,0,0,0.13392,0.0432,0.08064,0.216,0.08352,0,0.03312
2002/12/2 4:45,0,0,0.13248,0.0432,0.01008,0.216,0.08928,0,0.03312
2002/12/2 5:00,0,0,0.13248,0.0432,0.2808,0.216,0.0864,0,0.0288
2002/12/2 5:15,0,0,0.1296,0.0432,0.39024,0.216,0.0864,0,0.01008
2002/12/2 5:30,0,0,0.13248,0.0432,0.00864,0.216,0.08352,0,0.04032
2002/12/2 5:45,0,0,0.10944,0.0432,0.00288,0.216,0.11664,0,0.036
2002/12/2 6:00,0,0,0.12096,0.0432,0.3528,0.216,0.08496,0,0.01584
2002/12/2 6:15,0,0,0.10512,0.0432,0.39168,0.216,0.0792,0,0.0288
2002/12/2 6:30,0,0,0.10368,0.0432,0.03888,0.216,0.0864,0,0.06048
2002/12/2 6:45,4.50864,0,0.54432,0.37152,0.00576,0.21024,0.72144,0,-0.21456
2002/12/2 7:00,4.25664,0,1.22688,2.22768,0.3096,0.2016,0.63936,0,-0.288
2002/12/2 7:15,3.56832,0,1.55232,0.0432,0.3888,0.1944,0.95184,0,-0.32256
2002/12/2 7:30,3.65904,0,1.12032,0.0432,0.13968,0.29376,1.02816,0,-0.26208
2002/12/2 7:45,3.07152,0,0.49392,0.26784,0.00864,0.09936,0.80352,0,-0.09072
2002/12/2 8:00,0,0,0.27792,0.39744,0.34416,0.0864,1.07424,0,-0.11664
2002/12/2 8:15,0,0,0.39456,0.0432,0.39744,0.0864,0.8784,0,-0.05616
2002/12/2 8:30,0,0,0.14544,0.0432,0.05616,0.0864,0.08208,0,0.06768
2002/12/2 8:45,0,0,0.1152,0.0432,0.01008,0.0864,0.0792,0,0.07344
2002/12/2 9:00,0,0,0.10512,0.0432,0.30816,0.0864,0.08064,0,0.05328
2002/12/2 9:15,0,0,0.108,0.0432,0.29232,0.0864,0.08784,0,0.04896
2002/12/2 9:30,0,0,0.10944,0.0432,0.01152,0.0864,0.08784,0,0.06912
2002/12/2 9:45,0,0,0.10944,0.0432,0.09216,0.0864,0.0864,0,0.0648
2002/12/2 10:00,0,0,0.11664,0.0432,0.41616,0.0864,0.11952,0,0.0216
2002/12/2 10:15,0,0,0.10224,0.0432,0.1296,0.0864,0.08496,0,0.06912
2002/12/2 10:30,0,0,0.11088,0.0432,0.01008,0.0864,0.08496,0,0.0576
2002/12/2 10:45,0,0,0.11232,0.0432,0.31392,0.0864,0.0864,0,0.04752
2002/12/2 11:00,0,0,0.10944,0.0432,0.30384,0.0864,0.08784,0,0.04608
2002/12/2 11:15,0,0,0.11664,0.0432,0.01296,0.0864,0.08064,0,0.0648
2002/12/2 11:30,0,0,0.11088,0.0432,0.13248,0.0864,0.08928,0,0.05616
2002/12/2 11:45,0,0,0.11088,0.0432,0.41904,0.08928,0.08496,0,0.03744
2002/12/2 12:00,0,0,0.12096,0.0432,0.16416,0.0936,0.08784,0,0.0432
2002/12/2 12:15,0,0,0.1008,0.0432,0.01728,0.0864,0.08064,0,0.07344
2002/12/2 12:30,0,0,0.10944,0.0432,0.28224,0.0864,0.08352,0,0.04608
2002/12/2 12:45,0,0,0.1152,0.0432,0.40464,0.0864,0.09072,0,0.03456
2002/12/2 13:00,0,0,0.11376,0.0432,0.03888,0.0864,0.08352,0,0.06336
2002/12/2 13:15,0,0,0.10224,0.0432,0.0288,0.0864,0.08208,0,0.06768
2002/12/2 13:30,0,0,0.11232,0.0432,0.42624,0.0864,0.08352,0,0.036
2002/12/2 13:45,0,0,0.10512,0.0432,0.48528,0.0864,0.08352,0,0.0216
2002/12/2 14:00,0,0,0.11088,0.0432,0.56304,0.0864,0.0864,0,-0.00576
2002/12/2 14:15,0,0,0.10368,0.0432,0.56448,0.0864,0.08208,0,-0.00576
2002/12/2 14:30,0,0,0.10368,0.0432,0.41616,0.0864,0.0792,0,0.03744
2002/12/2 14:45,0,0,0.11808,0.0432,0.48384,0.0864,0.09072,0,0.0288
2002/12/2 15:00,0,0,0.10944,0.0432,0.44784,0.0864,0.08208,0,0.036
2002/12/2 15:15,0,0,0.13248,1.9656,0.432,0.0864,0.08352,0,0.09216
2002/12/2 15:30,0,0,0.3672,1.15488,0.2952,0.0864,0.12816,0,0.03456
2002/12/2 15:45,0,0,0.63792,0.21168,0.01296,0.0864,0.0864,0,0.0648
2002/12/2 16:00,0,0,0.61488,0.37872,0.28224,0.0864,0.08208,0,-0.04752
2002/12/2 16:15,0,0,1.26,0.108,0.41904,0.0864,0.08352,0,-0.0792
2002/12/2 16:30,0,0,0.44928,0.108,0.14112,0.0864,0.08064,0,0.01584
2002/12/2 16:45,0,0,0.80928,0.80352,0.03312,0.32976,0.08064,0,-0.13824
2002/12/2 17:00,0,0,1.02528,0.0432,0.38736,0.41616,0.10224,0,-0.11088
2002/12/2 17:15,0,0,1.01952,0.0432,0.40032,0.41328,0.072,0,-0.09072
2002/12/2 17:30,2.07936,0,0.80352,0.0432,0.00576,0.41184,0.08064,0,-0.04896
2002/12/2 17:45,1.53936,0,0.76176,0.0432,0.08064,0.22032,0.0864,0,-0.01584
2002/12/2 18:00,1.7496,0,0.66672,0.0432,0.41616,0.1944,0.08784,0,-0.02736
2002/12/2 18:15,1.83168,0,0.5688,0.0432,0.28944,0.1944,0.1152,0,-0.0144
2002/12/2 18:30,1.872,0,0.72288,0.0432,0.00576,0.1944,0.08496,0,-0.02448
2002/12/2 18:45,1.74096,0,1.51488,0.0432,0.17568,0.216,0.0864,0,-0.13248
2002/12/2 19:00,2.23056,0,1.6128,0.0432,0.4176,0.5256,0.0864,0,-0.27648
2002/12/2 19:15,2.37744,0,1.51632,0.0432,0.27648,0.3744,0.07632,0,-0.22752
2002/12/2 19:30,2.23344,0,1.50048,0.0432,0.00432,0.1944,0.08784,0,-0.21168
2002/12/2 19:45,2.24928,0,1.31904,0.0432,0.18576,0.1944,0.08784,0,-0.1512
2002/12/2 20:00,2.34288,0,0.72,0.0432,0.40608,0.1944,0.08928,0,-0.11376
2002/12/2 20:15,2.30544,0,0.60336,0.0432,0.1728,0.1944,0.08928,0,-0.0504
2002/12/2 20:30,2.40624,0,0.39744,0.0432,0.00288,0.1944,0.08352,0,0.0072
2002/12/2 20:45,2.65824,0,0.88416,0.0432,0.28224,0.1944,0.09072,0,-0.09648
2002/12/2 21:00,2.9232,0,1.06128,0.0432,0.40752,0.1944,0.08784,0,-0.144
2002/12/2 21:15,2.90592,0,0.74448,0.0432,0.0576,0.1944,0.54144,0,-0.1008
2002/12/2 21:30,2.50848,0,1.76976,1.01232,0.0216,0.1944,0.1224,0,-0.26208
2002/12/2 21:45,1.94256,0,1.76832,0.0432,0.41328,0.1944,0.07632,0,-0.16272
2002/12/2 22:00,2.16144,0,2.49264,0.26928,0.40032,0.44208,0.08496,0,-0.38016
2002/12/2 22:15,2.05632,0,2.02176,0.37584,0.0864,0.54288,1.05408,0,-0.4824
2002/12/2 22:30,0.74736,0,1.9728,0.37872,0.02016,0.41616,0.2664,0,-0.34128
2002/12/2 22:45,0.4176,0,1.3176,0.0432,0.34128,0.2952,0.08784,0,-0.2016
2002/12/2 23:00,0.4536,0,1.15632,0.0432,0.39888,0.27216,0.33264,0,-0.21168
2002/12/2 23:15,0.08928,0,1.08288,0.0432,0.23184,0.37872,0.79776,0,-0.216
2002/12/2 23:30,0,0,1.63008,0.0432,0.00288,0.38448,0.08928,0,-0.19152
2002/12/2 23:45,0,0,2.07792,0.0432,0.18576,0.37008,0.08352,0,-0.24192
2002/12/3 0:00,0,0,1.06704,0.0432,0.40752,0.36576,0.12096,0,-0.11808
2002/12/3 0:15,0,0,0.11232,0.0432,0.14688,0.2088,0.08352,0,0.06624
2002/12/3 0:30,0,0,0.10944,0.0432,0.01008,0.1944,0.08496,0,0.08208
2002/12/3 0:45,0,0,0.09792,0.0432,0.32544,0.1944,0.0792,0,0.07632
2002/12/3 1:00,0,0,0.108,0.0432,0.39888,0.1944,0.08784,0,0.04752
2002/12/3 1:15,0,0,0.108,0.0432,0.02592,0.1944,0.08352,0,0.08208
2002/12/3 1:30,0,0,0.108,0.0432,0.00576,0.1944,0.08208,0,0.08352
2002/12/3 1:45,0,0,0.10944,0.0432,0.41328,0.19584,0.08496,0,0.05328
2002/12/3 2:00,0,0,0.108,0.0432,0.29664,0.20016,0.08208,0,0.0576
2002/12/3 2:15,0,0,0.11232,0.0432,0.01008,0.20016,0.08352,0,0.0792
2002/12/3 2:30,0,0,0.11376,0.0432,0.1512,0.19296,0.08352,0,0.06768
2002/12/3 2:45,0,0,0.11088,0.0432,0.41472,0.1944,0.08784,0,0.05184
2002/12/3 3:00,0,0,0.10368,0.0432,0.08352,0.1944,0.08928,0,0.07488
2002/12/3 3:15,0,0,0.11232,0.0432,0.00288,0.1944,0.08496,0,0.07632
2002/12/3 3:30,0,0,0.11376,0.0432,0.37008,0.1944,0.08352,0,0.04752
2002/12/3 3:45,0,0,0.10512,0.0432,0.33552,0.1944,0.08208,0,0.05328
2002/12/3 4:00,0,0,0.10656,0.0432,0.0072,0.1944,0.08784,0,0.0792
2002/12/3 4:15,0,0,0.11232,0.0432,0.05904,0.1944,0.08352,0,0.06048
2002/12/3 4:30,0,0,0.10656,0.0432,0.4032,0.1944,0.08784,0,0.0504
2002/12/3 4:45,0,0,0.11376,0.0432,0.22896,0.19872,0.08208,0,0.06336
2002/12/3 5:00,0,0,0.36,0.0432,0.00432,0.216,0.0936,0,0.036
2002/12/3 5:15,0.83088,0,0.7488,0.0432,0.15552,0.396,0.08064,0,-0.12384
2002/12/3 5:30,0.62208,0,0.8784,0.0432,0.40464,0.43056,0.11232,0,-0.16992
2002/12/3 5:45,0.09648,0,0.32112,0.0432,0.10944,0.2448,0.08784,0,0.02016
2002/12/3 6:00,0,0,0.13824,0.0432,0.00576,0.216,0.08496,0,0.0576
2002/12/3 6:15,0,0,0.14544,0.0432,0.28368,0.28656,0.08352,0,0.0216
2002/12/3 6:30,3.90384,0,0.68688,0.0432,0.39168,0.21168,0.08208,0,-0.12816
2002/12/3 6:45,3.87504,0,0.792,0.73008,0.07776,0.19584,0.0936,0,-0.19728
2002/12/3 7:00,3.88224,0,0.85104,1.02672,0.16272,0.2016,0.09216,0,-0.19584
2002/12/3 7:15,3.00384,0,0.69696,0.17424,0.40464,0.1944,0.09216,0,-0.06768
2002/12/3 7:30,1.1232,0,1.224,0.0432,0.39168,0.1944,0.11664,0,-0.13104
2002/12/3 7:45,0.45648,0,1.05264,0.0432,0.0072,0.1944,0.08784,0,-0.0936
2002/12/3 8:00,0.09072,0,1.17072,0.0432,0.00576,0.1944,0.08784,0,-0.09792
2002/12/3 8:15,0,0,0.64512,0.0432,0.40608,0.1944,0.29232,0,-0.07632
2002/12/3 8:30,0,0,0.26928,0.0432,0.3744,0.1944,0.08784,0,0.01008
2002/12/3 8:45,0,0,0.19152,0.0432,0.0072,0.1944,0.0792,0,0.05328
2002/12/3 9:00,0,0,0.20304,0.0432,0.01008,0.1944,0.08208,0,0.04896
2002/12/3 9:15,0,0,0.20304,0.0432,0.41184,0.1944,0.08208,0,0.01728
2002/12/3 9:30,0,0,0.19152,0.0432,0.36,0.1944,0.11088,0,0.02736
2002/12/3 9:45,0,0,0.2016,0.0432,0.01008,0.1944,0.08496,0,0.04608
2002/12/3 10:00,0,0,0.21024,0.0432,0.05904,0.1944,0.0792,0,0.04032
2002/12/3 10:15,0,0,0.20304,0.0432,0.40608,0.1944,0.08208,0,0.0144
2002/12/3 10:30,0,0,0.20016,0.0432,0.3168,0.1944,0.0864,0,0.0288
2002/12/3 10:45,0,0,0.20304,0.0432,0.01152,0.1944,0.08352,0,0.0432
2002/12/3 11:00,0,0,0.19584,0.0432,0.10656,0.1944,0.08208,0,0.02304
2002/12/3 11:15,0,0,0.20016,0.0432,0.41616,0.1944,0.08208,0,0.01728
2002/12/3 11:30,0,0,0.20592,0.0432,0.28944,0.1944,0.08064,0,0.01584
2002/12/3 11:45,0,0,0.20592,0.0432,0.0144,0.19584,0.08496,0,0.04464
2002/12/3 12:00,0,0,0.20736,0.0432,0.16848,0.19728,0.0864,0,0.01728
2002/12/3 12:15,0,0,0.19584,0.0432,0.40608,0.1944,0.08208,0,0.01728
2002/12/3 12:30,0,0,0.19584,0.0432,0.2952,0.1944,0.0864,0,0.03456
2002/12/3 12:45,0,0,0.20736,0.0432,0.01296,0.1944,0.11232,0,0.04896
2002/12/3 13:00,0,0,0.2016,0.0432,0.144,0.1944,0.0792,0,0.05328
2002/12/3 13:15,0,0,0.19584,0.0432,0.42192,0.1944,0.08352,0,0.03168
2002/12/3 13:30,0,0,0.19008,0.0432,0.2088,0.1944,0.08064,0,0.04176
2002/12/3 13:45,0,0,0.19584,0.0432,0.0144,0.1944,0.08208,0,0.05616
2002/12/3 14:00,0,0,0.20592,0.0432,0.24768,0.1944,0.08208,0,0.03312
2002/12/3 14:15,0,0,0.20448,0.0432,0.41472,0.1944,0.08496,0,0.01872
2002/12/3 14:30,0,0,0.21168,0.0432,0.53856,0.1944,0.08208,0,-0.02304
2002/12/3 14:45,0,0,0.20592,0.0432,0.5616,0.1944,0.08064,0,-0.02592
2002/12/3 15:00,0.02592,0,0.2016,1.05552,0.44784,0.1944,0.08064,0,-0.03168
2002/12/3 15:15,0.02592,0,0.2232,2.20032,0.50256,0.1944,0.08352,0,0.036
2002/12/3 15:30,0,0,0.21888,0.3312,0.47088,0.1944,0.08208,0,0.00288
2002/12/3 15:45,0,0,0.19296,0.13536,0.44496,0.1944,0.08784,0,0.02016
2002/12/3 16:00,0,0,0.19728,0.50976,0.44784,0.1944,0.0792,0,-0.05904
2002/12/3 16:15,0,0,0.72576,0.108,0.41328,0.1944,0.09504,0,-0.03168
2002/12/3 16:30,0.77184,0,0.58752,0.108,0.0504,0.1944,0.08496,0,-0.11088
2002/12/3 16:45,0.52128,0,0.53424,0.10224,0.06048,0.1944,0.08784,0,-0.07056
2002/12/3 17:00,0.45504,0,1.21392,0.10224,0.42912,0.1944,0.0792,0,-0.15984
2002/12/3 17:15,0.45936,0,0.75168,0.09936,0.41472,0.1944,0.08208,0,-0.08496
2002/12/3 17:30,0.40464,0,0.7416,0.0432,0.42768,0.1944,0.0792,0,-0.07344
2002/12/3 17:45,0.50256,0,0.86688,0.0432,0.37008,0.1944,0.11376,0,-0.10656
2002/12/3 18:00,0.78912,0,0.90576,0.0432,0.0072,0.31104,0.08208,0,-0.09648
2002/12/3 18:15,0.79344,0,0.98928,0.0432,0.23472,0.40464,0.08064,0,-0.1584
2002/12/3 18:30,0.83952,0,1.1016,0.0432,0.432,0.42048,0.0792,0,-0.17136
2002/12/3 18:45,0.84672,0,0.72864,0.0432,0.432,0.2232,0.08064,0,-0.08496
2002/12/3 19:00,0.56736,0,1.296,0.46944,0.43056,0.1944,0.0792,0,-0.20736
2002/12/3 19:15,0.3888,0,1.83456,0.0432,0.0072,0.1944,0.08496,0,-0.16704
2002/12/3 19:30,1.02672,0,1.6056,0.0432,0.09504,0.27072,0.08352,0,-0.22032
2002/12/3 19:45,0.88704,0,0.79776,0.22464,0.4104,0.30816,0.08496,0,-0.12384
2002/12/3 20:00,0.4752,0,1.15056,0.42192,0.41328,0.33264,0.0864,0,-0.22752
2002/12/3 20:15,0.44064,0,1.53936,0.43632,0.16128,0.42768,0.08352,0,-0.29232
2002/12/3 20:30,0.44496,0,1.57536,0.0432,0.0072,0.41904,0.08496,0,-0.2088
2002/12/3 20:45,0.44352,0,2.11104,0.0432,0.36,0.432,0.08208,0,-0.3096
2002/12/3 21:00,0.48816,0,1.79712,0.0432,0.41904,0.432,0.0792,0,-0.29952
2002/12/3 21:15,0.4248,0,1.54224,0.0432,0.27504,0.42192,0.08928,0,-0.23904
2002/12/3 21:30,0.48816,0,1.44432,0.0432,0.00576,0.26064,0.08208,0,-0.18288
2002/12/3 21:45,0.48384,0,1.07712,0.0432,0.24624,0.1944,0.10656,0,-0.13536
2002/12/3 22:00,0.46512,0,0.53568,0.0432,0.4176,0.1944,0.05904,0,-0.07056
2002/12/3 22:15,0.4608,0,1.02816,0.0432,0.34704,0.1944,0.53712,0,-0.17136
2002/12/3 22:30,0.4176,0,1.88064,0.0432,0.0072,0.1944,1.3464,0,-0.41328
2002/12/3 22:45,0.45792,0,1.96992,0.0432,0.1368,0.216,0.0792,0,-0.22896
2002/12/3 23:00,0.41472,0,0.94896,0.0432,0.40176,0.26064,1.48608,0,-0.30816
2002/12/3 23:15,0.41328,0,0.83952,0.0432,0.40032,0.31392,0.08064,0,-0.13248
2002/12/3 23:30,0.4104,0,0.76464,0.0432,0.04464,0.3024,0.19872,0,-0.07488
2002/12/3 23:45,0.40464,0,1.16352,0.0432,0.05616,0.29088,0.0864,0,-0.13968
2002/12/4 0:00,0.08928,0,0.39024,0.0432,0.41472,0.29232,0.08496,0,-0.02736
2002/12/4 0:15,0,0,0.14112,0.0432,0.40752,0.23184,0.0792,0,0.02016
2002/12/4 0:30,0,0,0.14112,0.0432,0.11664,0.22032,0.0864,0,0.03888
2002/12/4 0:45,0,0,0.12816,0.0432,0.01008,0.21744,0.08208,0,0.04608
2002/12/4 1:00,0,0,0.13104,0.0432,0.39456,0.216,0.08352,0,0.0144
2002/12/4 1:15,0,0,0.13392,0.0432,0.41184,0.216,0.09072,0,0.01872
2002/12/4 1:30,0,0,0.14112,0.0432,0.22896,0.216,0.0864,0,0.03024
2002/12/4 1:45,0,0,0.14256,0.0432,0.0144,0.21888,0.08352,0,0.04608
2002/12/4 2:00,0,0,0.13248,0.0432,0.27072,0.22176,0.08352,0,0.03024
2002/12/4 2:15,0,0,0.14112,0.0432,0.43056,0.22032,0.08928,0,0.0144
2002/12/4 2:30,0,0,0.14256,0.0432,0.3744,0.22032,0.0864,0,0.02448
2002/12/4 2:45,0,0,0.1368,0.0432,0.01152,0.22176,0.08064,0,0.04608
2002/12/4 3:00,0,0,0.14544,0.0432,0.13248,0.22176,0.08784,0,0.03888
2002/12/4 3:15,0,0,0.14112,0.0432,0.432,0.2232,0.08928,0,0.01872
2002/12/4 3:30,0,0,0.14544,0.0432,0.42768,0.22032,0.0864,0,0.01584
2002/12/4 3:45,0,0,0.14256,0.0432,0.02304,0.22032,0.08496,0,0.04176
2002/12/4 4:00,0,0,0.14256,0.0432,0.03024,0.22176,0.08496,0,0.04176
2002/12/4 4:15,0,0,0.14112,0.0432,0.42336,0.22032,0.08496,0,0.01008
2002/12/4 4:30,0,0,0.1368,0.0432,0.42912,0.22176,0.08352,0,0.02592
2002/12/4 4:45,0,0,0.14976,0.0432,0.06768,0.22176,0.08352,0,0.04176
2002/12/4 5:00,0,0,0.14112,0.0432,0.00576,0.22176,0.0864,0,0.04464
2002/12/4 5:15,0,0,0.1368,0.0432,0.39168,0.21888,0.08496,0,0.01872
2002/12/4 5:30,0,0,0.144,0.0432,0.41328,0.21888,0.08352,0,0.0072
2002/12/4 5:45,0,0,0.14256,0.0432,0.1224,0.22176,0.11952,0,0.02448
2002/12/4 6:00,0,0,0.14256,0.0432,0.00432,0.21888,0.08064,0,0.03888
2002/12/4 6:15,0,0,0.14112,0.0432,0.2952,0.21744,0.08928,0,0.03168
2002/12/4 6:30,0,0,0.14976,0.0432,0.40752,0.216,0.08928,0,0.01584
2002/12/4 6:45,0.83664,0,0.50544,0.648,0.17136,0.20448,0.6984,0,-0.25632
2002/12/4 7:00,0.90576,0,1.0944,2.20032,0.04896,0.2016,0.72576,0,-0.28368
2002/12/4 7:15,0.90288,0,1.97136,0.0432,0.21744,0.1944,0.67536,0,-0.3384
2002/12/4 7:30,0.6624,0,2.6496,0.0432,0.40608,0.1944,0.0864,0,-0.38736
2002/12/4 7:45,0.09216,0,2.32416,0.0432,0.27504,0.1944,0.65088,0,-0.2664
2002/12/4 8:00,0,0,1.52784,0.0432,0.01296,0.1944,0.08064,0,-0.09936
2002/12/4 8:15,0,0,0.58752,0.0432,0.2016,0.1944,0.29952,0,-0.04896
2002/12/4 8:30,0,0,0.11376,0.0432,0.4104,0.1944,0.08496,0,0.01728
2002/12/4 8:45,0,0,0.11232,0.0432,0.31536,0.1944,0.08208,0,0.02592
2002/12/4 9:00,0,0,0.10944,0.0432,0.00576,0.1944,0.0864,0,0.04752
2002/12/4 9:15,0,0,0.11232,0.0432,0.03888,0.1944,0.0864,0,0.05184
2002/12/4 9:30,0,0,0.11088,0.0432,0.4032,0.1944,0.08208,0,0.02448
2002/12/4 9:45,0,0,0.1152,0.0432,0.36,0.1944,0.0792,0,0.03024
2002/12/4 10:00,0,0,0.108,0.0432,0.0072,0.1944,0.08784,0,0.05616
2002/12/4 10:15,0,0,0.11664,0.0432,0.00576,0.1944,0.0792,0,0.05616
2002/12/4 10:30,0,0,0.11376,0.0432,0.37008,0.1944,0.08496,0,0.0216
2002/12/4 10:45,0,0,0.1152,0.0432,0.3888,0.1944,0.07776,0,0.02016
2002/12/4 11:00,0,0,0.10512,0.0432,0.10944,0.1944,0.08064,0,0.04896
2002/12/4 11:15,0,0,0.11232,0.0432,0.0072,0.1944,0.11952,0,0.05328
2002/12/4 11:30,0,0,0.11088,0.0432,0.21456,0.1944,0.04896,0,0.03744
2002/12/4 11:45,0,0,0.10512,0.0432,0.39312,0.19728,0.11376,0,0.0216
2002/12/4 12:00,0,0,0.10656,0.0432,0.45792,0.19728,0.0792,0,0.01152
2002/12/4 12:15,0,0,0.10368,0.0432,0.56016,0.1944,0.0792,0,-0.0144